Location: *
(23.5860°S, 65.4036°W)
Time: 20:29:08
(UTC+00:00)

Cosmos 1602 - Pass Details

Date: 25 August 2019
Orbit: 516 x 534 km, 82.5° (Epoch: 14 October)

Event Time Altitude Azimuth Distance (km) Brightness Sun altitude
Rises 23:04:31 0° 185° (S) 2,682 7.3 -13.5°
Reaches altitude 10° 23:06:41 10° 184° (S) 1,782 6.4 -14.0°
Maximum altitude 23:10:36 86° 94° (E) 531 3.6 -14.9°
Drops below altitude 10° 23:14:26 10° 6° (N) 1,747 6.4 -15.7°
Sets 23:16:32 0° 5° (N) 2,624 7.3 -16.2°
